Muscle Shoals, AL

5:49 PM CST on December 15, 2019 (GMT -0600)
Northwest Alabama Regional

Weather History for KMSL - October, 2019

Change the Weather History Date:

Saturday, October 19, 2019

  Actual Average Record
Temperature  
Mean Temperature 57 °F 61 °F  
Max Temperature 69 °F 73 °F 91 °F (2016)
Min Temperature 45 °F 49 °F 28 °F (1948)
Degree Days  
Heating Degree Days 8 6  
Month to date heating degree days 57 69  
Since 1 July heating degree days 57 84  
Cooling Degree Days 0 1  
Month to date cooling degree days 130 49  
Year to date cooling degree days 2488 1851  
Growing Degree Days 8 (Base 50)    
Moisture  
Dew Point 54 °F    
Average Humidity 80    
Maximum Humidity 93    
Minimum Humidity 66    
Precipitation  
Precipitation T in 0.10 in 3.05 in (2004)
Month to date precipitation 1.41 2.00  
Year to date precipitation 47.93 41.43  
Snow  
Snow 0.00 in - - ()
Month to date snowfall 0.0  
Since 1 July snowfall 0.0  
Since 1 September snowfall 0.0  
Snow Depth 0.00 in    
Sea Level Pressure  
Sea Level Pressure 29.83 in    
Wind  
Wind Speed 5 mph (ESE)    
Max Wind Speed 14 mph    
Max Gust Speed 17 mph    
Visibility 10 miles    
Events Rain    
T = Trace of Precipitation, MM = Missing Value Source: NWS Daily Summary

Daily Weather History Graph

Daily Weather History Graph

Search for Another Location

Airport or City:

Astronomy

Oct. 19, 2019 Rise Set
Actual Time 6:59 AM CDT 6:10 PM CDT
Civil Twilight 6:33 AM CDT 6:36 PM CDT
Nautical Twilight 6:04 AM CDT 7:05 PM CDT
Astronomical Twilight 5:35 AM CDT 7:35 PM CDT
Moon 10:29 PM CDT (10/19) 12:21 PM CDT (10/19)
Length of Visible Light 12h 02m
Length of Day
11h 11m
Waning Gibbous, 69% of the Moon is Illuminated
Oct 19
Waning Gibbous
Oct 21
Last Quarter
Oct 27
New
Nov 4
First Quarter
Nov 12
Full

Hourly Weather History & Observations

Time (CDT) Temp. Dew Point Humidity Pressure Visibility Wind Dir Wind Speed Gust Speed Precip Events Conditions
12:53 AM 50.0 °F 44.1 °F 80% 29.88 in 10.0 mi ENE 4.6 mph - N/A   Clear
1:53 AM 46.9 °F 43.0 °F 86% 29.88 in 10.0 mi East 4.6 mph - N/A   Clear
2:53 AM 48.0 °F 43.0 °F 83% 29.87 in 10.0 mi East 4.6 mph - N/A   Clear
3:53 AM 46.9 °F 43.0 °F 86% 29.86 in 10.0 mi Calm Calm - N/A   Clear
4:53 AM 48.9 °F 44.1 °F 83% 29.86 in 10.0 mi East 5.8 mph - N/A   Partly Cloudy
5:53 AM 54.0 °F 46.9 °F 77% 29.86 in 10.0 mi ESE 3.5 mph - N/A   Overcast
6:53 AM 57.0 °F 46.9 °F 69% 29.86 in 10.0 mi East 6.9 mph - N/A   Overcast
7:53 AM 57.9 °F 48.9 °F 72% 29.87 in 10.0 mi East 5.8 mph - N/A   Overcast
8:53 AM 61.0 °F 50.0 °F 67% 29.88 in 10.0 mi East 5.8 mph - N/A   Overcast
9:53 AM 63.0 °F 53.1 °F 70% 29.87 in 10.0 mi ESE 6.9 mph - N/A   Overcast
10:48 AM 66.2 °F 55.4 °F 68% 29.87 in 10.0 mi SE 10.4 mph - N/A   Overcast
10:53 AM 66.9 °F 55.0 °F 66% 29.87 in 10.0 mi SE 10.4 mph - N/A   Overcast
11:53 AM 63.0 °F 57.9 °F 84% 29.87 in 5.0 mi ESE 9.2 mph - 0.00 in Rain Light Rain
12:53 PM 66.0 °F 57.0 °F 73% 29.83 in 10.0 mi ESE 9.2 mph - 0.00 in   Overcast
1:53 PM 69.1 °F 57.9 °F 68% 29.80 in 10.0 mi SE 8.1 mph - N/A   Overcast
2:53 PM 68.0 °F 57.0 °F 68% 29.79 in 10.0 mi East 9.2 mph - N/A   Overcast
3:53 PM 66.0 °F 57.9 °F 75% 29.79 in 10.0 mi ESE 9.2 mph - N/A   Overcast
4:35 PM 66.0 °F 57.9 °F 75% 29.79 in 10.0 mi East 6.9 mph - N/A   Overcast
4:53 PM 64.9 °F 57.9 °F 78% 29.79 in 10.0 mi East 8.1 mph - N/A   Overcast
5:53 PM 64.0 °F 59.0 °F 84% 29.78 in 10.0 mi East 4.6 mph - N/A   Overcast
6:53 PM 63.0 °F 57.9 °F 84% 29.79 in 10.0 mi East 3.5 mph - N/A   Overcast
7:04 PM 63.0 °F 57.9 °F 84% 29.81 in 10.0 mi Calm Calm - N/A   Overcast
7:35 PM 63.0 °F 57.9 °F 84% 29.81 in 10.0 mi East 3.5 mph - N/A   Overcast
7:53 PM 63.0 °F 57.9 °F 84% 29.80 in 10.0 mi East 3.5 mph - N/A   Overcast
8:53 PM 62.1 °F 57.9 °F 86% 29.79 in 10.0 mi SE 3.5 mph - N/A   Mostly Cloudy
8:58 PM 62.1 °F 57.9 °F 86% 29.80 in 10.0 mi ESE 4.6 mph - N/A   Mostly Cloudy
9:41 PM 61.0 °F 57.0 °F 87% 29.81 in 10.0 mi Calm Calm - N/A   Mostly Cloudy
9:53 PM 60.1 °F 57.0 °F 90% 29.81 in 10.0 mi Calm Calm - N/A   Scattered Clouds
10:08 PM 59.0 °F 55.9 °F 90% 29.82 in 10.0 mi Calm Calm - N/A   Partly Cloudy
10:53 PM 60.1 °F 57.9 °F 93% 29.82 in 10.0 mi Calm Calm - N/A   Overcast
11:53 PM 62.1 °F 57.9 °F 86% 29.82 in 10.0 mi Calm Calm - N/A   Overcast